This is the latest recevied weather packets stored in our database for station/object VE6EN. If no packets are shown the sender has not sent any weather packets the latest 10 day(s).
| Time | Temp. | Humidity | Pressure | Rain* | Wind** | Luminosity | Snow |
|---|---|---|---|---|---|---|---|
| 1777666204 | 18.89° C | 26% | 1013.7 hPa | 0 mm | - | - | - |
| 1777665604 | 18.89° C | 24% | 1013.6 hPa | 0 mm | - | - | - |
| 1777664999 | 19.44° C | 25% | 1013.7 hPa | 0 mm | - | - | - |
| 1777664399 | 19.44° C | 25% | 1013.7 hPa | 0 mm | - | - | - |
| 1777663800 | 19.44° C | 24% | 1013.7 hPa | 0 mm | - | - | - |
| 1777663200 | 18.89° C | 25% | 1013.7 hPa | 0 mm | - | - | - |
| 1777662604 | 19.44° C | 24% | 1013.6 hPa | 0 mm | - | - | - |
| 1777662000 | 20° C | 24% | 1013.6 hPa | 0 mm | - | - | - |
| 1777661399 | 19.44° C | 24% | 1013.5 hPa | 0 mm | - | - | - |
| 1777660803 | 19.44° C | 24% | 1013.5 hPa | 0 mm | - | - | - |
| 1777660199 | 18.89° C | 24% | 1013.5 hPa | 0 mm | - | - | - |
| 1777659599 | 18.89° C | 25% | 1013.6 hPa | 0 mm | - | - | - |
| 1777659004 | 18.89° C | 25% | 1013.6 hPa | 0 mm | - | - | - |
| 1777658400 | 18.89° C | 24% | 1013.7 hPa | 0 mm | - | - | - |
| 1777657799 | 18.89° C | 24% | 1013.8 hPa | 0 mm | - | - | - |
| 1777657199 | 18.89° C | 24% | 1013.8 hPa | 0 mm | - | - | - |
| 1777656599 | 18.89° C | 25% | 1014 hPa | 0 mm | - | - | - |
| 1777656004 | 18.33° C | 26% | 1014 hPa | 0 mm | - | - | - |
| 1777655400 | 17.78° C | 27% | 1014 hPa | 0 mm | - | - | - |
| 1777654802 | 17.78° C | 29% | 1014.2 hPa | 0 mm | - | - | - |
| 1777654199 | 17.22° C | 28% | 1014.3 hPa | 0 mm | - | - | - |
| 1777653599 | 16.67° C | 28% | 1014.4 hPa | 0 mm | - | - | - |
| 1777653002 | 16.11° C | 33% | 1014.5 hPa | 0 mm | - | - | - |
| 1777652399 | 15.56° C | 36% | 1014.6 hPa | 0 mm | - | - | - |
| 1777651799 | 15° C | 37% | 1014.7 hPa | 0 mm | - | - | - |
* Rain latest hour (hover to see other rain measurements)
** Current wind speed in m/s (hover to see current wind gust speed)